Regional Weather Roundup
Issued by NWS Boston, MA

Current Version | Previous Version | Text Only | Print | Product List | Glossary Off
Versions: 1 2 3 4 5 6 7 8 9 10 11 12 13 14 15 16 17 18 19 20 21 22 23 24 25 26 27
000 ASUS41 KBOX 250610 RWRBOX REGIONAL WEATHER ROUNDUP NATIONAL WEATHER SERVICE TAUNTON MA 200 AM EDT MON SEP 25 2017 NOTE: "FAIR" INDICATES FEW OR NO CLOUDS BELOW 12,000 FEET WITH NO SIGNIFICANT WEATHER AND/OR OBSTRUCTIONS TO VISIBILITY. MAZALL-250700- EASTERN MASSACHUSETTS CITY SKY/WX TMP DP RH WIND PRES REMARKS BOSTON CLEAR 68 64 87 CALM 30.02F 6HR MIN TEMP: 67; 6HR MAX TEMP: 72; BEVERLY CLEAR 64 62 93 CALM 30.02S LAWRENCE CLEAR 69 65 86 CALM 30.05S BEDFORD CLEAR 65 63 93 CALM 30.02S BLUE HILL N/A 74 64 71 W6 30.04F NORWOOD FOG 64 63 96 CALM 30.02F VSB 1/2 MARSHFIELD CLEAR 63 63 100 CALM 30.03S PLYMOUTH CLEAR 63 61 93 CALM 30.04S TAUNTON FOG 60 59 96 CALM 30.03S VSB 1/2 NEW BEDFORD CLEAR 60 59 96 CALM 30.03S $$ MAZALL-250700- CAPE COD AND THE ISLANDS CITY SKY/WX TMP DP RH WIND PRES REMARKS FALMOUTH CLEAR 61 61 100 CALM 30.05S HYANNIS FOG 64 64 100 S5 30.03S VSB 1/4 CHATHAM CLOUDY 62 62 100 CALM 30.05S FOG PROVINCETOWN CLEAR 64 63 96 S3 30.04F NANTUCKET FOG 61 61 100 CALM 30.04S VSB 1/4 MARTHAS VNYRD FOG 59 57 93 CALM 30.04F VSB 1/4 $$ MAZALL-250700- CENTRAL AND WESTERN MASSACHUSETTS CITY SKY/WX TMP DP RH WIND PRES REMARKS WORCESTER CLEAR 77 63 61 N7 30.07F 6HR MIN TEMP: 68; 6HR MAX TEMP: 78; FITCHBURG CLEAR 69 66 90 NW5 30.05S ORANGE CLEAR 64 64 100 CALM 30.07S SPRINGFIELD CLEAR 64 63 96 CALM 30.05R WESTFIELD CLEAR 66 66 100 CALM 30.06R NORTH ADAMS CLEAR 61 59 93 CALM 30.10S PITTSFIELD CLEAR 64 62 93 CALM 30.10R $$ RIZALL-250700- RHODE ISLAND CITY SKY/WX TMP DP RH WIND PRES REMARKS PROVIDENCE CLEAR 66 64 93 S3 30.04F 6HR MIN TEMP: 65; 6HR MAX TEMP: 71; NEWPORT CLEAR 63 61 93 CALM 30.04F BLOCK ISLAND CLEAR 66 64 93 NW3 30.05F SMITHFIELD CLEAR 63 62 97 CALM 30.05S WESTERLY CLEAR 63 60 90 CALM 30.05F $$ CTZALL-250700- CONNECTICUT CITY SKY/WX TMP DP RH WIND PRES REMARKS BRADLEY INTL CLEAR 68 66 93 CALM 30.05R 6HR MIN TEMP: 67; 6HR MAX TEMP: 78; HARTFORD CLEAR 68 66 93 CALM 30.04S BRIDGEPORT CLEAR 70 66 87 CALM 30.03F DANBURY CLEAR 66 64 93 CALM 30.07S GROTON CLEAR 63 60 90 CALM 30.03F NEW HAVEN CLEAR 66 63 90 CALM 30.04F CHESTER FAIR 66 63 88 MISG 30.05S MERIDEN CLEAR 65 63 93 CALM 30.04F WILLIMANTIC CLEAR 66 64 93 NE3 30.05F OXFORD CLEAR 66 64 93 N5 30.07F $$ MEZ002-015-021-024-NHZ003-005-008-011-012-014-VTZ005-008-250700- NORTHERN NEW ENGLAND CITY SKY/WX TMP DP RH WIND PRES REMARKS PORTLAND ME CLEAR 65 62 90 E3 30.04S 6HR MIN TEMP: 65; 6HR MAX TEMP: 72; BANGOR ME CLOUDY 67 63 87 CALM 30.04R CONCORD NH CLEAR 65 64 97 CALM 30.06R MANCHESTER NH CLEAR 71 68 90 CALM 30.03S NASHUA NH CLEAR 67 67 100 NW5 30.04F PORTSMOUTH NH CLEAR 67 65 94 CALM 30.02F JAFFREY NH CLEAR 64 64 100 CALM 30.09F KEENE NH FOG 64 64 100 CALM 30.08S VSB 1/4 BURLINGTON VT CLEAR 70 68 93 CALM 30.07S MT. WASHINGTON PTCLDY 57 55 94 N12 N/A $$ NYZ052-076-250700- EASTERN NEW YORK CITY SKY/WX TMP DP RH WIND PRES REMARKS ALBANY CLEAR 69 66 90 CALM 30.07R 6HR MIN TEMP: 68; 6HR MAX TEMP: 77; NEW YORK CITY CLEAR 73 65 75 E5 30.02F 6HR MIN TEMP: 73; 6HR MAX TEMP: 80; $$ ANZALL-250700- MARINE OBSERVATIONS STATION/POSITION TIME TEMP WIND PRES VSBY WAVE AIR SEA DIR/SP/G HT/PER (UTC) (F) (DEG/KT/KT) (MB) (MI) (FT/S) BOSTON BUOY 0550 64 63 150/ 6/ 6 1016.5F 2/14 BUZZARDS BAY 0500 67 220/ 3/ 3 1017.8R NANTUCKET SOUND 0550 61 62 300/ 4/ 4 1017.3F 1/11 MASS BAY-STELLWA 0504 64 61 180/ 4/ 4 1016.0F 3/11 ISLE OF SHOALS 0500 71 250/ 3/ 3 1016.7F S OF BLOCK IS NOT AVBL $$ ......................KEY......................... SKY/WX - SKY CONDITION/PRESENT WEATHER TMP - TEMPERATURE IN FAHRENHEIT DWPT - DEWPOINT IN FAHRENHEIT RH - RELATIVE HUMIDITY IN PERCENT WIND - DIRECTION AND SPEED IN MPH PRES - MEAN SEA LEVEL PRESSURE IN INCHES OF HG WCI - WIND CHILL INDEX VSB - VISIBILITY IN MILES HX - HEAT INDEX TC - TEMPERATURE IN CELSIUS VRB - VARIABLE WIND DIRECTION N/A - NOT AVAILABLE

USA.gov is the U.S. government's official web portal to all federal, state and local government web resources and services.